When you browse on this site, cookies collect data to enhance your experience and personalize the content and advertising you see.
Visit our Privacy Policy to learn more. By continuing to use the site, you agree to this use of cookies and data.
  • In United Kingdom
  • List of Countries
  • For 7 days
  • Water Temperature
  • Weather Map
  • Weather Widgets
  • user-avatar
    Login

    Hourly Weather Ambajogai

    Today, 6 April, Monday

    Time Temperature Precipitation Wind Pressure Humidity
    00:00 +32°C° 0 mm 2 mps 705 mmHg 24%
    01:00 +33°C° 0 mm 3 mps 705 mmHg 26%
    02:00 +33°C° 0 mm 5 mps 704 mmHg 27%
    03:00 +32°C° 0 mm 5 mps 704 mmHg 29%
    04:00 +32°C° 0 mm 5 mps 704 mmHg 31%
    05:00 +30°C° 0 mm 7 mps 705 mmHg 40%
    06:00 +32°C° 0 mm 6 mps 706 mmHg 36%
    07:00 +34°C° 0 mm 6 mps 706 mmHg 32%
    08:00 +35°C° 0 mm 5 mps 707 mmHg 27%
    09:00 +37°C° 0 mm 4 mps 707 mmHg 25%
    10:00 +38°C° 0 mm 4 mps 707 mmHg 22%
    11:00 +39°C° 0 mm 3 mps 707 mmHg 20%
    12:00 +39°C° 0 mm 2 mps 706 mmHg 18%
    13:00 +40°C° 0 mm 2 mps 705 mmHg 17%
    14:00 +40°C° 0 mm 1 mps 704 mmHg 16%
    15:00 +40°C° 0 mm 1 mps 704 mmHg 16%
    16:00 +40°C° 0 mm 1 mps 703 mmHg 15%
    17:00 +40°C° 0 mm 1 mps 703 mmHg 15%
    18:00 +38°C° 0 mm 3 mps 704 mmHg 19%
    19:00 +37°C° 0 mm 4 mps 704 mmHg 24%
    20:00 +35°C° 0 mm 6 mps 704 mmHg 28%
    21:00 +34°C° 0 mm 5 mps 704 mmHg 30%
    22:00 +33°C° 0 mm 4 mps 705 mmHg 31%
    23:00 +33°C° 0 mm 3 mps 705 mmHg 33%

    Tomorrow, 7 April, Tuesday

    Time Temperature Precipitation Wind Pressure Humidity
    00:00 +31°C° 0 mm 3 mps 704 mmHg 33%
    01:00 +30°C° 0 mm 3 mps 704 mmHg 34%
    02:00 +30°C° 0 mm 3 mps 703 mmHg 35%
    03:00 +29°C° 0 mm 3 mps 703 mmHg 33%
    04:00 +29°C° 0 mm 3 mps 703 mmHg 31%
    05:00 +28°C° 0 mm 2 mps 703 mmHg 29%
    06:00 +30°C° 0 mm 3 mps 704 mmHg 25%
    07:00 +32°C° 0 mm 4 mps 705 mmHg 22%
    08:00 +34°C° 0 mm 4 mps 706 mmHg 19%
    09:00 +36°C° 0 mm 4 mps 705 mmHg 17%
    10:00 +37°C° 0 mm 4 mps 705 mmHg 15%
    11:00 +39°C° 0 mm 3 mps 705 mmHg 12%
    12:00 +39°C° 0 mm 3 mps 704 mmHg 11%
    13:00 +40°C° 0 mm 3 mps 704 mmHg 10%
    14:00 +42°C° 0 mm 3 mps 703 mmHg 9%
    15:00 +42°C° 0 mm 3 mps 703 mmHg 9%
    16:00 +42°C° 0 mm 3 mps 702 mmHg 9%
    17:00 +42°C° 0 mm 3 mps 702 mmHg 8%
    18:00 +39°C° 0 mm 3 mps 702 mmHg 10%
    19:00 +37°C° 0 mm 3 mps 703 mmHg 11%
    20:00 +35°C° 0 mm 3 mps 703 mmHg 13%
    21:00 +34°C° 0 mm 4 mps 703 mmHg 16%
    22:00 +33°C° 0 mm 4 mps 703 mmHg 19%
    23:00 +32°C° 0 mm 5 mps 704 mmHg 22%

    Day after tomorrow, 8 April, Wednesday

    Time Temperature Precipitation Wind Pressure Humidity
    00:00 +30°C° 0 mm 4 mps 703 mmHg 24%
    01:00 +29°C° 0 mm 3 mps 703 mmHg 25%
    02:00 +28°C° 0 mm 2 mps 702 mmHg 27%
    03:00 +27°C° 0 mm 2 mps 703 mmHg 27%
    04:00 +27°C° 0 mm 1 mps 703 mmHg 27%
    05:00 +26°C° 0 mm 1 mps 703 mmHg 28%
    06:00 +28°C° 0 mm 3 mps 704 mmHg 24%
    07:00 +29°C° 0 mm 4 mps 705 mmHg 20%
    08:00 +32°C° 0 mm 6 mps 706 mmHg 16%
    09:00 +34°C° 0 mm 5 mps 706 mmHg 14%
    10:00 +36°C° 0 mm 5 mps 706 mmHg 11%
    11:00 +38°C° 0 mm 4 mps 706 mmHg 9%
    12:00 +40°C° 0 mm 4 mps 705 mmHg 9%
    13:00 +41°C° 0 mm 4 mps 704 mmHg 9%
    14:00 +42°C° 0 mm 4 mps 704 mmHg 9%
    15:00 +41°C° 0 mm 5 mps 703 mmHg 9%
    16:00 +41°C° 0 mm 5 mps 702 mmHg 9%
    17:00 +41°C° 0 mm 5 mps 702 mmHg 9%
    18:00 +39°C° 0 mm 5 mps 702 mmHg 11%
    19:00 +36°C° 0 mm 4 mps 703 mmHg 13%
    20:00 +34°C° 0 mm 3 mps 703 mmHg 14%
    21:00 +33°C° 0 mm 5 mps 704 mmHg 17%
    22:00 +32°C° 0 mm 6 mps 704 mmHg 19%
    23:00 +30°C° 0 mm 7 mps 704 mmHg 22%

    9 April, Thursday

    Time Temperature Precipitation Wind Pressure Humidity
    00:00 +29°C° 0 mm 7 mps 704 mmHg 23%
    01:00 +28°C° 0 mm 7 mps 703 mmHg 24%
    02:00 +27°C° 0 mm 6 mps 703 mmHg 25%
    03:00 +27°C° 0 mm 6 mps 703 mmHg 28%
    04:00 +26°C° 0 mm 5 mps 703 mmHg 32%
    05:00 +25°C° 0 mm 5 mps 703 mmHg 35%
    06:00 +26°C° 0 mm 5 mps 704 mmHg 32%
    07:00 +28°C° 0 mm 6 mps 705 mmHg 30%
    08:00 +30°C° 0 mm 6 mps 706 mmHg 27%
    09:00 +33°C° 0 mm 5 mps 706 mmHg 23%
    10:00 +35°C° 0 mm 4 mps 706 mmHg 19%
    11:00 +37°C° 0 mm 4 mps 706 mmHg 15%
    12:00 +38°C° 0 mm 3 mps 705 mmHg 13%
    13:00 +39°C° 0 mm 2 mps 704 mmHg 12%
    14:00 +40°C° 0 mm 1 mps 703 mmHg 11%
    15:00 +40°C° 0 mm 1 mps 703 mmHg 10%
    16:00 +40°C° 0 mm 1 mps 703 mmHg 10%
    17:00 +40°C° 0 mm 1 mps 702 mmHg 10%
    18:00 +37°C° 0 mm 1 mps 702 mmHg 11%
    19:00 +35°C° 0 mm 1 mps 703 mmHg 13%
    20:00 +32°C° 0 mm 1 mps 703 mmHg 15%
    21:00 +32°C° 0 mm 2 mps 703 mmHg 15%
    22:00 +33°C° 0 mm 3 mps 704 mmHg 15%
    23:00 +33°C° 0 mm 4 mps 704 mmHg 15%

    10 April, Friday

    Time Temperature Precipitation Wind Pressure Humidity
    00:00 +32°C° 0 mm 4 mps 704 mmHg 19%
    01:00 +30°C° 0 mm 5 mps 703 mmHg 23%
    02:00 +29°C° 0 mm 5 mps 703 mmHg 28%
    03:00 +28°C° 0 mm 5 mps 703 mmHg 28%
    04:00 +27°C° 0 mm 4 mps 703 mmHg 28%
    05:00 +26°C° 0 mm 3 mps 703 mmHg 28%
    06:00 +28°C° 0 mm 3 mps 704 mmHg 25%
    07:00 +30°C° 0 mm 4 mps 705 mmHg 22%
    08:00 +33°C° 0 mm 4 mps 706 mmHg 18%
    09:00 +35°C° 0 mm 5 mps 706 mmHg 16%
    10:00 +37°C° 0 mm 5 mps 706 mmHg 14%
    11:00 +40°C° 0 mm 5 mps 706 mmHg 12%
    12:00 +41°C° 0 mm 4 mps 705 mmHg 11%
    13:00 +41°C° 0 mm 4 mps 705 mmHg 10%
    14:00 +42°C° 0 mm 3 mps 704 mmHg 9%
    15:00 +42°C° 0 mm 3 mps 703 mmHg 9%
    16:00 +42°C° 0 mm 3 mps 703 mmHg 9%
    17:00 +42°C° 0 mm 3 mps 703 mmHg 9%
    18:00 +38°C° 0 mm 3 mps 703 mmHg 11%
    19:00 +36°C° 0 mm 2 mps 704 mmHg 13%
    20:00 +34°C° 0 mm 2 mps 704 mmHg 16%
    21:00 +32°C° 0 mm 2 mps 704 mmHg 21%
    22:00 +31°C° 0 mm 2 mps 704 mmHg 26%
    23:00 +30°C° 0 mm 2 mps 704 mmHg 30%

    11 April, Saturday

    Time Temperature Precipitation Wind Pressure Humidity
    00:00 +29°C° 0 mm 2 mps 704 mmHg 30%
    01:00 +29°C° 0 mm 2 mps 704 mmHg 30%
    02:00 +28°C° 0 mm 2 mps 703 mmHg 30%
    03:00 +28°C° 0 mm 2 mps 703 mmHg 31%
    04:00 +28°C° 0 mm 2 mps 704 mmHg 31%
    05:00 +27°C° 0 mm 2 mps 704 mmHg 31%
    06:00 +30°C° 0 mm 2 mps 705 mmHg 27%
    07:00 +33°C° 0 mm 3 mps 706 mmHg 24%
    08:00 +36°C° 0 mm 3 mps 707 mmHg 20%
    09:00 +37°C° 0 mm 3 mps 707 mmHg 17%
    10:00 +39°C° 0 mm 3 mps 707 mmHg 14%
    11:00 +40°C° 0 mm 3 mps 707 mmHg 11%
    12:00 +42°C° 0 mm 3 mps 706 mmHg 11%
    13:00 +41°C° 0 mm 2 mps 705 mmHg 10%
    14:00 +41°C° 0 mm 1 mps 704 mmHg 9%
    15:00 +41°C° 0 mm 2 mps 704 mmHg 10%
    16:00 +41°C° 0 mm 2 mps 704 mmHg 10%
    17:00 +42°C° 0 mm 3 mps 703 mmHg 10%
    18:00 +40°C° 0 mm 4 mps 703 mmHg 13%
    19:00 +37°C° 0 mm 4 mps 704 mmHg 16%
    20:00 +34°C° 0 mm 5 mps 704 mmHg 19%
    21:00 +34°C° 0 mm 4 mps 704 mmHg 20%
    22:00 +33°C° 0 mm 4 mps 704 mmHg 22%
    23:00 +31°C° 0 mm 3 mps 704 mmHg 23%
    Show more